Tracking 30743 objects as of 22-Jun-2025
HD Live streaming from Space Station
objects crossing your sky now

COSMOS 1470

Track COSMOS 1470 now!
10-day predictions
COSMOS 1470 is classified as:


NORAD ID: 14147
Int'l Code: 1983-061A
Perigee: 461.9 km
Apogee: 473.1 km
Inclination: 82.5 °
Period: 93.8 minutes
Semi major axis: 6838 km
RCS: 8.3388 m2 (large)
Launch date: June 23, 1983
Source: Commonwealth of Independent States (former USSR) (CIS)
Launch site: PLESETSK MISSILE AND SPACE COMPLEX (PKMTR)
Your satellite tracking list
Your tracking list is empty




NASA's NSSDC Master Catalog

Two Line Element Set (TLE):
1 14147U 83061A   25172.53675375  .00007142  00000-0  20796-3 0  9994
2 14147  82.4724  25.4854 0008131 210.9424 149.1341 15.35186221 47568
Source of the keplerian elements: AFSPC